Weather History for Orangeburg, SC

Change the Weather History Date:

Tuesday, January 8, 2013

  Actual Average Record
Temperature  
Mean Temperature 51 °F 45 °F  
Max Temperature 65 °F 56 °F 76 °F (2008)
Min Temperature 37 °F 35 °F 12 °F (1970)
Degree Days  
Heating Degree Days 14 20  
Month to date heating degree days 126 160  
Since 1 July heating degree days 940 1064  
Cooling Degree Days 0 0  
Month to date cooling degree days 0 0  
Year to date cooling degree days 0 0  
Moisture  
Dew Point 39 °F    
Average Humidity 66    
Maximum Humidity 85    
Minimum Humidity 52    
Precipitation  
Precipitation 0.00 in 0.13 in 1.72 in (1976)
Month to date precipitation 0.10 1.02  
Year to date precipitation 0.10 1.02  
Sea Level Pressure  
Sea Level Pressure 30.36 in    
Wind  
Wind Speed 6 mph (NE)    
Max Wind Speed 12 mph    
Max Gust Speed 16 mph    
Visibility 10 miles    
Events      
T = Trace of Precipitation, MM = Missing Value Source: NWS Daily Summary

Daily Weather History Graph

Daily Weather History Graph

Search for Another Location

Airport:

Trip Planner

Search our weather history database for the weather conditions in past years. The results will help you decide how hot, cold, wet, or windy it might be!

Date:

Astronomy

Jan. 08, 2013 Rise Set
Actual Time 7:28 AM EST 5:32 PM EST
Civil Twilight 7:01 AM EST 5:59 PM EST
Nautical Twilight 6:30 AM EST 6:30 PM EST
Astronomical Twilight 6:00 AM EST 7:00 PM EST
Moon 4:00 AM EST (1/8) 2:33 PM EST (1/8)
Length of Visible Light 10h 58m
Length of Day
10h 04m
Waning Crescent, 14% of the Moon is Illuminated
Jan 8
Waning Crescent
Jan 11
New
Jan 18
First Quarter
Jan 26
Full
Feb 3
Last Quarter

Hourly Weather History & Observations

Time (EST) Temp. Windchill Dew Point Humidity Pressure Visibility Wind Dir Wind Speed Gust Speed Precip Events Conditions
12:53 AM 37.0 °F - 33.1 °F 86% 30.38 in 10.0 mi Calm Calm - N/A   Partly Cloudy
1:53 AM 39.9 °F 35.8 °F 33.1 °F 77% 30.36 in 10.0 mi NE 5.8 mph - N/A   Clear
2:17 AM 41.0 °F 38.0 °F 33.8 °F 76% 30.35 in 10.0 mi NE 4.6 mph - N/A   Mostly Cloudy
2:53 AM 43.0 °F 38.8 °F 35.1 °F 74% 30.35 in 10.0 mi NE 6.9 mph - N/A   Overcast
3:34 AM 42.8 °F 39.3 °F 35.6 °F 76% 30.34 in 10.0 mi NE 5.8 mph - N/A   Scattered Clouds
3:53 AM 43.0 °F 38.8 °F 35.1 °F 74% 30.35 in 10.0 mi NE 6.9 mph - N/A   Mostly Cloudy
4:53 AM 44.1 °F 39.5 °F 35.1 °F 71% 30.35 in 10.0 mi NE 8.1 mph - N/A   Overcast
5:53 AM 45.0 °F 40.1 °F 34.0 °F 65% 30.35 in 10.0 mi NE 9.2 mph - N/A   Overcast
6:53 AM 44.1 °F 40.8 °F 34.0 °F 68% 30.37 in 10.0 mi NE 5.8 mph - N/A   Scattered Clouds
7:53 AM 44.1 °F 40.1 °F 35.1 °F 71% 30.39 in 10.0 mi NE 6.9 mph - N/A   Clear
8:53 AM 46.0 °F 41.4 °F 34.0 °F 63% 30.40 in 10.0 mi ENE 9.2 mph - N/A   Clear
9:53 AM 50.0 °F - 34.0 °F 54% 30.40 in 10.0 mi East 11.5 mph - N/A   Scattered Clouds
10:53 AM 52.0 °F - 37.0 °F 57% 30.41 in 10.0 mi East 6.9 mph - N/A   Mostly Cloudy
11:53 AM 55.0 °F - 39.0 °F 55% 30.39 in 10.0 mi NE 5.8 mph - N/A   Overcast
12:53 PM 57.9 °F - 41.0 °F 53% 30.36 in 10.0 mi ENE 4.6 mph - N/A   Overcast
1:53 PM 62.1 °F - 44.1 °F 52% 30.34 in 10.0 mi Variable 4.6 mph - N/A   Mostly Cloudy
2:53 PM 62.1 °F - 45.0 °F 53% 30.32 in 10.0 mi ESE 4.6 mph - N/A   Partly Cloudy
3:53 PM 62.1 °F - 46.0 °F 56% 30.33 in 10.0 mi ENE 4.6 mph - N/A   Mostly Cloudy
4:53 PM 62.1 °F - 46.0 °F 56% 30.32 in 10.0 mi East 3.5 mph - N/A   Overcast
5:53 PM 59.0 °F - 46.9 °F 64% 30.33 in 10.0 mi Calm Calm - N/A   Overcast
6:53 PM 57.9 °F - 46.0 °F 65% 30.35 in 10.0 mi NNE 5.8 mph - N/A   Overcast
7:53 PM 57.9 °F - 45.0 °F 62% 30.37 in 10.0 mi NNE 3.5 mph - N/A   Overcast
8:53 PM 55.9 °F - 45.0 °F 67% 30.38 in 10.0 mi NNE 4.6 mph - N/A   Overcast
9:53 PM 54.0 °F - 45.0 °F 72% 30.36 in 10.0 mi ENE 3.5 mph - N/A   Clear
10:53 PM 52.0 °F - 45.0 °F 77% 30.37 in 10.0 mi NE 4.6 mph - N/A   Clear